Weather History for Sheridan, WY

Change the Weather History Date:

Wednesday, October 17, 2012

  Actual Average Record
Temperature  
Mean Temperature 45 °F 45 °F  
Max Temperature 50 °F 60 °F 88 °F (2003)
Min Temperature 39 °F 31 °F 12 °F (1930)
Degree Days  
Heating Degree Days 20 20  
Month to date heating degree days 300 289  
Since 1 July heating degree days 450 592  
Cooling Degree Days 0 0  
Month to date cooling degree days 0 0  
Year to date cooling degree days 664 418  
Moisture  
Dew Point 20 °F    
Average Humidity 45    
Maximum Humidity 64    
Minimum Humidity 26    
Precipitation  
Precipitation T in 0.04 in 1.03 in (1932)
Month to date precipitation 0.72 0.90  
Year to date precipitation 7.71 12.38  
Sea Level Pressure  
Sea Level Pressure 29.91 in    
Wind  
Wind Speed 24 mph (NW)    
Max Wind Speed 41 mph    
Max Gust Speed 53 mph    
Visibility 10 miles    
Events      
T = Trace of Precipitation, MM = Missing Value Source: NWS Daily Summary

Daily Weather History Graph

Daily Weather History Graph

Search for Another Location

Airport:

Trip Planner

Search our weather history database for the weather conditions in past years. The results will help you decide how hot, cold, wet, or windy it might be!

Date:

Astronomy

Oct. 17, 2012 Rise Set
Actual Time 7:26 AM MDT 6:18 PM MDT
Civil Twilight 6:57 AM MDT 6:48 PM MDT
Nautical Twilight 6:23 AM MDT 7:22 PM MDT
Astronomical Twilight 5:49 AM MDT 7:56 PM MDT
Moon 10:12 AM MDT (10/17) 7:49 PM MDT (10/17)
Length of Visible Light 11h 51m
Length of Day
10h 52m
Waxing Crescent, 7% of the Moon is Illuminated
Oct 17
Waxing Crescent
Oct 21
First Quarter
Oct 29
Full
Nov 6
Last Quarter
Nov 13
New

Hourly Weather History & Observations

Time (MDT) Temp. Windchill Dew Point Humidity Pressure Visibility Wind Dir Wind Speed Gust Speed Precip Events Conditions
12:53 AM 45.0 °F 36.2 °F 21.0 °F 39% 29.71 in 10.0 mi NW 24.2 mph 32.2 mph N/A   Clear
1:53 AM 45.0 °F 35.8 °F 19.9 °F 37% 29.72 in 10.0 mi NW 26.5 mph 44.9 mph N/A   Partly Cloudy
2:53 AM 45.0 °F 36.4 °F 19.9 °F 37% 29.77 in 10.0 mi NW 23.0 mph 32.2 mph N/A   Mostly Cloudy
3:53 AM 45.0 °F 35.6 °F 19.0 °F 36% 29.79 in 10.0 mi NW 27.6 mph 40.3 mph N/A   Overcast
4:53 AM 45.0 °F 35.8 °F 19.0 °F 36% 29.81 in 10.0 mi NW 26.5 mph 39.1 mph N/A   Overcast
5:53 AM 43.0 °F 33.8 °F 18.0 °F 37% 29.84 in 10.0 mi NW 23.0 mph 36.8 mph N/A   Overcast
6:53 AM 42.1 °F 34.2 °F 18.0 °F 38% 29.85 in 10.0 mi NW 16.1 mph - N/A   Partly Cloudy
7:53 AM 42.1 °F 33.6 °F 18.0 °F 38% 29.85 in 10.0 mi WNW 18.4 mph 27.6 mph N/A   Clear
8:53 AM 45.0 °F 35.2 °F 18.0 °F 34% 29.86 in 10.0 mi NW 29.9 mph 38.0 mph N/A   Clear
9:53 AM 46.9 °F - 17.1 °F 30% 29.88 in 10.0 mi NW 24.2 mph 36.8 mph N/A   Overcast
10:53 AM 48.0 °F - 16.0 °F 28% 29.88 in 10.0 mi NW 35.7 mph 51.8 mph N/A   Mostly Cloudy
11:53 AM 46.9 °F - 16.0 °F 29% 29.88 in 10.0 mi NW 34.5 mph 51.8 mph N/A   Overcast
12:53 PM 48.9 °F - 18.0 °F 29% 29.87 in 10.0 mi NW 33.4 mph 46.0 mph N/A   Overcast
1:53 PM 48.0 °F - 23.0 °F 37% 29.88 in 10.0 mi NW 31.1 mph 41.4 mph N/A   Mostly Cloudy
2:53 PM 48.9 °F - 19.9 °F 32% 29.88 in 10.0 mi WNW 33.4 mph 43.7 mph N/A   Partly Cloudy
3:53 PM 48.9 °F - 19.9 °F 32% 29.89 in 10.0 mi WNW 29.9 mph 40.3 mph N/A   Mostly Cloudy
4:53 PM 45.0 °F 37.1 °F 23.0 °F 42% 29.92 in 10.0 mi NNW 19.6 mph 27.6 mph 0.00 in   Overcast
5:53 PM 42.1 °F 33.9 °F 26.1 °F 53% 29.98 in 10.0 mi NW 17.3 mph - N/A   Overcast
6:53 PM 39.9 °F 32.9 °F 28.0 °F 63% 30.02 in 10.0 mi WNW 11.5 mph - N/A   Overcast
7:53 PM 41.0 °F 32.5 °F 25.0 °F 53% 30.04 in 10.0 mi NW 17.3 mph - N/A   Mostly Cloudy
8:53 PM 39.0 °F 29.6 °F 25.0 °F 57% 30.08 in 10.0 mi WNW 18.4 mph - N/A   Scattered Clouds
9:53 PM 39.0 °F 29.0 °F 23.0 °F 53% 30.09 in 10.0 mi WNW 20.7 mph 28.8 mph N/A   Partly Cloudy
10:53 PM 41.0 °F 31.1 °F 21.0 °F 45% 30.09 in 10.0 mi WNW 23.0 mph 32.2 mph N/A   Overcast
11:53 PM 39.9 °F 30.2 °F 19.0 °F 43% 30.11 in 10.0 mi WNW 20.7 mph 28.8 mph N/A   Partly Cloudy